Change the Weather History Date:

Sunday, March 23, 2014

  Actual Average Record
Temperature  
Mean Temperature 9 °F -  
Max Temperature 23 °F 41 °F 68 °F (2003)
Min Temperature -5 °F 21 °F -5 °F (2014)
Degree Days  
Heating Degree Days 56    
Moisture  
Dew Point 3 °F    
Average Humidity 71    
Maximum Humidity 85    
Minimum Humidity 50    
Precipitation  
Precipitation 0.00 in - - ()
Sea Level Pressure  
Sea Level Pressure 30.43 in    
Wind  
Wind Speed 3 mph (West)    
Max Wind Speed 13 mph    
Max Gust Speed 16 mph    
Visibility 10 miles    
Events Snow    
Averages and records for this station are not official NWS values.
T = Trace of Precipitation, MM = Missing Value Source: NWS Daily Summary

Daily Weather History Graph

Daily Weather History Graph

Search for Another Location

Airport or City:

Trip Planner

Search our weather history database for the weather conditions in past years. The results will help you decide how hot, cold, wet, or windy it might be!

Date:

Astronomy

Mar. 23, 2014 Rise Set
Actual Time 7:11 AM CDT 7:30 PM CDT
Civil Twilight 6:42 AM CDT 8:00 PM CDT
Nautical Twilight 6:07 AM CDT 8:35 PM CDT
Astronomical Twilight 5:31 AM CDT 9:11 PM CDT
Moon 2:02 AM CDT (3/23) 11:39 AM CDT (3/23)
Length of Visible Light 13h 18m
Length of Day
12h 19m
Waning Gibbous, 54% of the Moon is Illuminated
Mar 23
Waning Gibbous
Mar 23
Last Quarter
Mar 30
New
Apr 7
First Quarter
Apr 15
Full

Hourly Weather History & Observations

Time (CDT) Temp. Windchill Dew Point Humidity Pressure Visibility Wind Dir Wind Speed Gust Speed Precip Events Conditions
12:13 AM 8.6 °F 0.1 °F -0.4 °F 67% 30.49 in 10.0 mi West 4.6 mph - N/A   Clear
12:33 AM 6.8 °F -0.1 °F -0.4 °F 72% 30.49 in 10.0 mi West 3.5 mph - N/A   Clear
12:53 AM 5.0 °F -4.1 °F -0.4 °F 78% 30.49 in 10.0 mi West 4.6 mph - N/A   Clear
1:13 AM 6.8 °F -3.5 °F -0.4 °F 72% 30.49 in 10.0 mi WNW 5.8 mph - N/A   Clear
1:33 AM 5.0 °F -4.1 °F -2.2 °F 72% 30.49 in 10.0 mi West 4.6 mph - N/A   Clear
1:53 AM 5.0 °F -2.1 °F -0.4 °F 78% 30.49 in 10.0 mi West 3.5 mph - N/A   Clear
2:13 AM 3.2 °F -4.2 °F -0.4 °F 85% 30.50 in 10.0 mi West 3.5 mph - N/A   Clear
2:33 AM 3.2 °F -4.2 °F -0.4 °F 85% 30.49 in 10.0 mi West 3.5 mph - N/A   Clear
2:53 AM 3.2 °F - -2.2 °F 78% 30.49 in 10.0 mi Calm Calm - N/A   Clear
3:13 AM 1.4 °F - -2.2 °F 85% 30.49 in 10.0 mi Calm Calm - N/A   Clear
3:33 AM 1.4 °F - -4.0 °F 78% 30.49 in 10.0 mi Calm Calm - N/A   Clear
3:53 AM -0.4 °F - -4.0 °F 85% 30.48 in 10.0 mi Calm Calm - N/A   Clear
4:13 AM -0.4 °F - -4.0 °F 85% 30.48 in 10.0 mi Calm Calm - N/A   Clear
4:34 AM -0.4 °F - -4.0 °F 85% 30.49 in 10.0 mi Calm Calm - N/A   Clear
4:53 AM -0.4 °F - -5.8 °F 78% 30.48 in 10.0 mi Calm Calm - N/A   Scattered Clouds
5:13 AM -0.4 °F - -5.8 °F 78% 30.48 in 10.0 mi Calm Calm - N/A   Scattered Clouds
5:34 AM -2.2 °F - -5.8 °F 85% 30.48 in 10.0 mi Calm Calm - N/A   Clear
5:53 AM -2.2 °F -10.4 °F -5.8 °F 85% 30.48 in 10.0 mi WSW 3.5 mph - N/A   Clear
6:13 AM -2.2 °F - -7.6 °F 78% 30.49 in 10.0 mi Calm Calm - N/A   Clear
6:34 AM -4.0 °F - -7.6 °F 85% 30.48 in 10.0 mi Calm Calm - N/A   Clear
6:53 AM -2.2 °F - -7.6 °F 78% 30.49 in 10.0 mi Calm Calm - N/A   Scattered Clouds
7:13 AM -4.0 °F - -7.6 °F 85% 30.48 in 10.0 mi Calm Calm - N/A   Overcast
7:34 AM -5.8 °F - -9.4 °F 84% 30.49 in 7.0 mi Calm Calm - N/A   Scattered Clouds
7:53 AM -2.2 °F - -5.8 °F 85% 30.49 in 10.0 mi Calm Calm - N/A   Mostly Cloudy
8:13 AM -0.4 °F - -5.8 °F 78% 30.49 in 3.0 mi Calm Calm - N/A Snow Light Snow
8:34 AM 1.4 °F - -2.2 °F 85% 30.48 in 3.0 mi Calm Calm - N/A Snow Light Snow
8:53 AM 3.2 °F - -0.4 °F 85% 30.48 in 7.0 mi Calm Calm - N/A   Mostly Cloudy
9:13 AM 6.8 °F - 3.2 °F 85% 30.48 in 10.0 mi Calm Calm - N/A   Scattered Clouds
9:33 AM 8.6 °F - 3.2 °F 79% 30.48 in 10.0 mi Calm Calm - N/A   Mostly Cloudy
9:53 AM 10.4 °F - 3.2 °F 73% 30.48 in 7.0 mi Calm Calm - N/A   Mostly Cloudy
10:13 AM 10.4 °F - 5.0 °F 79% 30.47 in 7.0 mi Calm Calm - N/A   Scattered Clouds
10:33 AM 15.8 °F - 6.8 °F 68% 30.47 in 10.0 mi Calm Calm - N/A   Mostly Cloudy
10:53 AM 15.8 °F - 6.8 °F 68% 30.47 in 3.0 mi Calm Calm - N/A Snow Light Snow
11:13 AM 17.6 °F 12.3 °F 6.8 °F 63% 30.47 in 4.0 mi WSW 3.5 mph - N/A Snow Light Snow
11:33 AM 17.6 °F - 8.6 °F 68% 30.46 in 10.0 mi Calm Calm - N/A   Mostly Cloudy
11:53 AM 17.6 °F 8.2 °F 6.8 °F 63% 30.46 in 10.0 mi West 6.9 mph - N/A   Overcast
12:13 PM 17.6 °F 6.4 °F 8.6 °F 68% 30.46 in 10.0 mi West 9.2 mph - N/A   Mostly Cloudy
12:33 PM 17.6 °F 6.4 °F 6.8 °F 63% 30.45 in 10.0 mi West 9.2 mph - N/A   Scattered Clouds
12:53 PM 19.4 °F 6.6 °F 6.8 °F 58% 30.45 in 10.0 mi West 12.7 mph - N/A   Clear
1:13 PM 19.4 °F 7.9 °F 6.8 °F 58% 30.44 in 10.0 mi West 10.4 mph 16.1 mph N/A   Clear
1:33 PM 21.2 °F 11.7 °F 6.8 °F 54% 30.44 in 10.0 mi West 8.1 mph - N/A   Scattered Clouds
1:53 PM 21.2 °F 11.7 °F 8.6 °F 58% 30.43 in 10.0 mi West 8.1 mph - N/A   Scattered Clouds
2:13 PM 21.2 °F 11.7 °F 8.6 °F 58% 30.42 in 10.0 mi West 8.1 mph - N/A   Scattered Clouds
2:33 PM 21.2 °F 10.1 °F 8.6 °F 58% 30.41 in 10.0 mi West 10.4 mph 16.1 mph N/A   Scattered Clouds
2:53 PM 21.2 °F 10.9 °F 8.6 °F 58% 30.40 in 10.0 mi WNW 9.2 mph - N/A   Scattered Clouds
3:13 PM 21.2 °F 14.9 °F 8.6 °F 58% 30.40 in 10.0 mi West 4.6 mph 9.2 mph N/A   Scattered Clouds
3:34 PM 21.2 °F 14.9 °F 8.6 °F 58% 30.39 in 10.0 mi West 4.6 mph - N/A   Scattered Clouds
3:53 PM 21.2 °F 10.9 °F 8.6 °F 58% 30.38 in 10.0 mi NNW 9.2 mph - N/A   Mostly Cloudy
4:13 PM 23.0 °F 13.9 °F 8.6 °F 54% 30.37 in 10.0 mi West 8.1 mph - N/A   Scattered Clouds
4:34 PM 23.0 °F 14.7 °F 8.6 °F 54% 30.37 in 10.0 mi West 6.9 mph - N/A   Clear
4:53 PM 23.0 °F 14.7 °F 6.8 °F 50% 30.36 in 10.0 mi West 6.9 mph - N/A   Clear
5:13 PM 23.0 °F 14.7 °F 6.8 °F 50% 30.36 in 10.0 mi WNW 6.9 mph - N/A   Scattered Clouds
5:34 PM 23.0 °F 17.0 °F 6.8 °F 50% 30.35 in 10.0 mi West 4.6 mph - N/A   Scattered Clouds
5:53 PM 23.0 °F 15.8 °F 6.8 °F 50% 30.35 in 10.0 mi NW 5.8 mph - N/A   Clear
6:13 PM 21.2 °F - 6.8 °F 54% 30.34 in 10.0 mi Calm Calm - N/A   Clear
6:34 PM 23.0 °F 15.8 °F 6.8 °F 50% 30.34 in 10.0 mi West 5.8 mph - N/A   Clear
6:53 PM 21.2 °F 14.9 °F 6.8 °F 54% 30.34 in 10.0 mi West 4.6 mph - N/A   Clear
7:13 PM 19.4 °F - 6.8 °F 58% 30.34 in 10.0 mi Calm Calm - N/A   Clear
7:34 PM 17.6 °F - 6.8 °F 63% 30.33 in 10.0 mi Calm Calm - N/A   Clear
7:53 PM 17.6 °F - 6.8 °F 63% 30.33 in 10.0 mi Calm Calm - N/A   Clear
8:13 PM 15.8 °F - 6.8 °F 68% 30.33 in 10.0 mi Calm Calm - N/A   Clear
8:34 PM 14.0 °F - 6.8 °F 73% 30.33 in 10.0 mi Calm Calm - N/A   Clear
8:53 PM 14.0 °F - 6.8 °F 73% 30.33 in 10.0 mi Calm Calm - N/A   Clear
9:13 PM 12.2 °F - 6.8 °F 79% 30.33 in 10.0 mi Calm Calm - N/A   Clear
9:34 PM 10.4 °F - 5.0 °F 79% 30.34 in 10.0 mi Calm Calm - N/A   Clear
9:53 PM 10.4 °F - 3.2 °F 73% 30.34 in 10.0 mi Calm Calm - N/A   Clear
10:13 PM 8.6 °F - 3.2 °F 79% 30.33 in 10.0 mi Calm Calm - N/A   Clear
10:34 PM 6.8 °F - 1.4 °F 79% 30.34 in 10.0 mi Calm Calm - N/A   Clear
10:53 PM 8.6 °F - 5.0 °F 85% 30.34 in 10.0 mi Calm Calm - N/A   Clear
11:13 PM 6.8 °F - 1.4 °F 79% 30.34 in 10.0 mi Calm Calm - N/A   Clear
11:34 PM 6.8 °F - 3.2 °F 85% 30.34 in 10.0 mi Calm Calm - N/A   Clear
11:53 PM 6.8 °F - 1.4 °F 79% 30.34 in 10.0 mi Calm Calm - N/A   Clear